{"data":{"norad_id":69723,"epoch":"2026-09-19T19:50:33.014400Z","epoch_age_seconds":79688,"freshness":"FRESH","line1":"1 69723U 26147V   26262.82677100  .00011472  00000+0  35699-3 0  9995","line2":"2 69723  97.2825 299.2418 0000251 272.0382  88.0832 15.33457206 14133","mean_motion":15.33457206,"eccentricity":2.51e-5,"inclination_deg":97.2825,"raan_deg":299.2418,"arg_perigee_deg":272.0382,"mean_anomaly_deg":88.0832,"bstar":0.00035699,"rev_number":1413,"period_min":93.905457183003,"perigee_km":465.33508278983,"apogee_km":465.67863371152,"semimajor_km":6843.6438582507,"source":"CELESTRAK","updated_at":"2026-09-20T09:00:44.284738Z"}}